EN

Hourly Weather Assokolay

Today, 27 November, Friday

Time Temperature Precipitation Wind Pressure Humidity
00:00 +4°C° 0 mm 1 mps 765 mmHg 86%
01:00 +4°C° 0 mm 1 mps 766 mmHg 87%
02:00 +3°C° 0 mm 1 mps 766 mmHg 88%
03:00 +2°C° 0 mm 2 mps 766 mmHg 89%
04:00 +3°C° 0 mm 1 mps 766 mmHg 88%
05:00 +3°C° 0 mm 1 mps 766 mmHg 88%
06:00 +3°C° 0 mm 1 mps 766 mmHg 87%
07:00 +3°C° 0 mm 1 mps 766 mmHg 85%
08:00 +4°C° 0 mm 1 mps 766 mmHg 82%
09:00 +4°C° 0 mm 1 mps 766 mmHg 78%
10:00 +6°C° 0 mm 1 mps 766 mmHg 72%
11:00 +7°C° 0 mm 1 mps 766 mmHg 66%
12:00 +9°C° 0 mm 1 mps 766 mmHg 60%
13:00 +9°C° 0 mm 1 mps 765 mmHg 60%
14:00 +10°C° 0 mm 1 mps 765 mmHg 60%
15:00 +10°C° 0 mm 1 mps 765 mmHg 60%
16:00 +9°C° 0 mm 1 mps 765 mmHg 65%
17:00 +8°C° 0 mm 1 mps 765 mmHg 71%
18:00 +7°C° 0 mm 1 mps 765 mmHg 76%
19:00 +7°C° 0 mm 1 mps 765 mmHg 77%
20:00 +6°C° 0 mm 1 mps 765 mmHg 79%
21:00 +5°C° 0 mm 2 mps 765 mmHg 80%
22:00 +5°C° 0 mm 2 mps 765 mmHg 79%
23:00 +5°C° 0 mm 2 mps 765 mmHg 78%

Tomorrow, 28 November, Saturday

Time Temperature Precipitation Wind Pressure Humidity
00:00 +4°C° 0 mm 2 mps 765 mmHg 77%
01:00 +4°C° 0 mm 2 mps 765 mmHg 76%
02:00 +4°C° 0 mm 2 mps 765 mmHg 74%
03:00 +4°C° 0 mm 2 mps 765 mmHg 72%
04:00 +4°C° 0 mm 2 mps 764 mmHg 71%
05:00 +3°C° 0 mm 2 mps 764 mmHg 70%
06:00 +3°C° 0 mm 2 mps 764 mmHg 69%
07:00 +4°C° 0 mm 2 mps 764 mmHg 68%
08:00 +4°C° 0 mm 2 mps 764 mmHg 66%
09:00 +4°C° 0 mm 2 mps 764 mmHg 65%
10:00 +7°C° 0 mm 1 mps 764 mmHg 60%
11:00 +9°C° 0 mm 1 mps 763 mmHg 54%
12:00 +11°C° 0 mm 1 mps 763 mmHg 49%
13:00 +11°C° 0 mm 1 mps 763 mmHg 49%
14:00 +11°C° 0 mm 1 mps 762 mmHg 49%
15:00 +12°C° 0 mm 1 mps 762 mmHg 50%
16:00 +10°C° 0 mm 1 mps 762 mmHg 54%
17:00 +9°C° 0 mm 1 mps 762 mmHg 59%
18:00 +8°C° 0 mm 1 mps 762 mmHg 64%
19:00 +7°C° 0 mm 1 mps 762 mmHg 65%
20:00 +7°C° 0 mm 1 mps 762 mmHg 66%
21:00 +7°C° 0 mm 1 mps 763 mmHg 68%
22:00 +7°C° 0 mm 1 mps 762 mmHg 68%
23:00 +6°C° 0 mm 1 mps 762 mmHg 69%

Day after tomorrow, 29 November, Sunday

Time Temperature Precipitation Wind Pressure Humidity
00:00 +6°C° 0 mm 1 mps 762 mmHg 69%
01:00 +6°C° 0 mm 1 mps 762 mmHg 69%
02:00 +6°C° 0 mm 1 mps 762 mmHg 69%
03:00 +6°C° 0 mm 1 mps 763 mmHg 69%
04:00 +5°C° 0 mm 1 mps 762 mmHg 69%
05:00 +5°C° 0 mm 1 mps 762 mmHg 69%
06:00 +5°C° 0 mm 1 mps 762 mmHg 70%
07:00 +6°C° 0 mm 1 mps 763 mmHg 68%
08:00 +6°C° 0 mm 1 mps 763 mmHg 66%
09:00 +6°C° 0 mm 1 mps 763 mmHg 64%
10:00 +8°C° 0 mm 1 mps 763 mmHg 58%
11:00 +10°C° 0 mm 1 mps 763 mmHg 52%
12:00 +12°C° 0 mm 1 mps 762 mmHg 46%
13:00 +12°C° 0 mm 1 mps 762 mmHg 47%
14:00 +12°C° 0 mm 2 mps 762 mmHg 48%
15:00 +13°C° 0 mm 2 mps 762 mmHg 49%
16:00 +10°C° 0 mm 2 mps 762 mmHg 55%
17:00 +8°C° 0 mm 2 mps 762 mmHg 60%
18:00 +7°C° 0 mm 2 mps 762 mmHg 66%
19:00 +6°C° 0 mm 2 mps 762 mmHg 68%
20:00 +6°C° 0 mm 2 mps 762 mmHg 70%
21:00 +5°C° 0 mm 2 mps 763 mmHg 73%
22:00 +5°C° 0 mm 2 mps 762 mmHg 74%
23:00 +5°C° 0 mm 2 mps 762 mmHg 76%

30 November, Monday

Time Temperature Precipitation Wind Pressure Humidity
00:00 +4°C° 0 mm 2 mps 762 mmHg 78%
01:00 +4°C° 0 mm 2 mps 762 mmHg 78%
02:00 +4°C° 0 mm 2 mps 762 mmHg 79%
03:00 +3°C° 0 mm 2 mps 762 mmHg 79%
04:00 +3°C° 0 mm 2 mps 762 mmHg 80%
05:00 +3°C° 0 mm 2 mps 761 mmHg 80%
06:00 +3°C° 0 mm 2 mps 761 mmHg 81%
07:00 +3°C° 0 mm 2 mps 761 mmHg 79%
08:00 +3°C° 0 mm 2 mps 761 mmHg 77%
09:00 +3°C° 0 mm 2 mps 761 mmHg 76%
10:00 +5°C° 0 mm 2 mps 761 mmHg 69%
11:00 +7°C° 0 mm 3 mps 760 mmHg 62%
12:00 +8°C° 0 mm 3 mps 760 mmHg 55%
13:00 +9°C° 0 mm 3 mps 760 mmHg 55%
14:00 +10°C° 0 mm 3 mps 759 mmHg 54%
15:00 +10°C° 0 mm 3 mps 759 mmHg 53%
16:00 +8°C° 0 mm 4 mps 759 mmHg 60%
17:00 +7°C° 0 mm 4 mps 759 mmHg 66%
18:00 +6°C° 0 mm 5 mps 759 mmHg 73%
19:00 +5°C° 0 mm 5 mps 759 mmHg 74%
20:00 +5°C° 0 mm 4 mps 759 mmHg 76%
21:00 +5°C° 0 mm 4 mps 759 mmHg 77%
22:00 +4°C° 0 mm 4 mps 759 mmHg 79%
23:00 +4°C° 0 mm 3 mps 759 mmHg 80%

1 December, Tuesday

Time Temperature Precipitation Wind Pressure Humidity
00:00 +3°C° 0 mm 3 mps 759 mmHg 81%
01:00 +3°C° 0 mm 3 mps 759 mmHg 81%
02:00 +3°C° 0 mm 3 mps 759 mmHg 81%
03:00 +3°C° 0 mm 3 mps 759 mmHg 81%
04:00 +3°C° 0 mm 3 mps 759 mmHg 80%
05:00 +3°C° 0 mm 3 mps 759 mmHg 78%
06:00 +3°C° 0 mm 3 mps 759 mmHg 77%
07:00 +3°C° 0 mm 4 mps 759 mmHg 75%
08:00 +3°C° 0 mm 4 mps 759 mmHg 72%
09:00 +4°C° 0 mm 4 mps 760 mmHg 69%
10:00 +5°C° 0 mm 4 mps 760 mmHg 64%
11:00 +7°C° 0 mm 4 mps 759 mmHg 59%
12:00 +8°C° 0 mm 4 mps 759 mmHg 53%
13:00 +10°C° 0 mm 4 mps 759 mmHg 54%
14:00 +10°C° 0 mm 4 mps 759 mmHg 55%
15:00 +9°C° 0 mm 5 mps 759 mmHg 55%
16:00 +8°C° 0 mm 5 mps 760 mmHg 60%
17:00 +7°C° 0 mm 5 mps 760 mmHg 66%
18:00 +5°C° 0 mm 5 mps 760 mmHg 71%
19:00 +5°C° 0 mm 5 mps 760 mmHg 73%
20:00 +4°C° 0 mm 4 mps 761 mmHg 75%
21:00 +4°C° 0 mm 4 mps 761 mmHg 77%
22:00 +4°C° 0 mm 4 mps 761 mmHg 78%
23:00 +3°C° 0 mm 4 mps 761 mmHg 79%

2 December, Wednesday

Time Temperature Precipitation Wind Pressure Humidity
00:00 +3°C° 0 mm 3 mps 761 mmHg 79%
01:00 +3°C° 0 mm 3 mps 761 mmHg 80%
02:00 +3°C° 0 mm 3 mps 761 mmHg 80%
03:00 +3°C° 0 mm 3 mps 761 mmHg 80%
04:00 +2°C° 0 mm 3 mps 761 mmHg 80%
05:00 +2°C° 0 mm 3 mps 761 mmHg 79%
06:00 +2°C° 0 mm 3 mps 761 mmHg 79%
07:00 +3°C° 0 mm 3 mps 761 mmHg 76%
08:00 +3°C° 0 mm 3 mps 761 mmHg 74%
09:00 +3°C° 0 mm 3 mps 761 mmHg 72%
10:00 +5°C° 0 mm 3 mps 761 mmHg 66%
11:00 +8°C° 0 mm 3 mps 761 mmHg 60%
12:00 +9°C° 0 mm 3 mps 761 mmHg 54%
13:00 +9°C° 0 mm 3 mps 761 mmHg 54%
14:00 +10°C° 0 mm 3 mps 761 mmHg 54%
15:00 +10°C° 0 mm 3 mps 761 mmHg 54%
16:00 +9°C° 0 mm 3 mps 761 mmHg 59%
17:00 +8°C° 0 mm 3 mps 761 mmHg 64%
18:00 +7°C° 0 mm 3 mps 761 mmHg 70%
19:00 +5°C° 0 mm 3 mps 761 mmHg 72%
20:00 +5°C° 0 mm 4 mps 762 mmHg 74%
21:00 +4°C° 0 mm 4 mps 762 mmHg 76%
22:00 +4°C° 0 mm 4 mps 762 mmHg 77%
23:00 +4°C° 0 mm 4 mps 762 mmHg 78%
Show more

We Need Your Consent

Meteoprog and our Service Providers may store and access personal data such as cookies, device identifiers or other similar technologies on your device and process such data to personalise content and ads, as well as provide social media features and to analyse the traffic.

  • Store and/or access information on your device

    Cookies, device identifiers or other information can be stored or accessed on your device for the purposes indicated above.

  • Personalised ads and content, ad and content measurement, audience insights, and products development

    Ads and content can be personalised based on a profile. More data can be added to better personalise ads and content. Ad and content performance can be measured. Insights about the audience who saw the ads and content can be derived. Such data can be used to develop or improve user’s experience, systems and software.

By clicking ‘I Agree’ you will allow the use of indicated cookies, device identifiers, web beacons or other similar technologies. Your settings can be changed in the browser on your device.

For certain purposes, legitimate interests may be relied on, rather than consent. You can read more about this in our Privacy and Cookie Policy.